This is the latest recevied weather packets stored in our database for station/object DG4MJS-10. If no packets are shown the sender has not sent any weather packets the latest 10 day(s).
| Time | Temp. | Humidity | Pressure | Rain* | Wind** | Luminosity | Snow |
|---|---|---|---|---|---|---|---|
| 1788442190 | 23.33° C | 44% | 1021.4 hPa | - | - | - | - |
| 1788441290 | 22.78° C | 43% | 1021.6 hPa | - | - | - | - |
| 1788440390 | 22.22° C | 47% | 1021.4 hPa | - | - | - | - |
| 1788439490 | 22.78° C | 43% | 1021.6 hPa | - | - | - | - |
| 1788438590 | 22.78° C | 42% | 1021.5 hPa | - | - | - | - |
| 1788437689 | 22.78° C | 40% | 1021.6 hPa | - | - | - | - |
| 1788433189 | 22.78° C | 41% | 1022.3 hPa | - | - | - | - |
| 1788432289 | 22.22° C | 41% | 1022.1 hPa | - | - | - | - |
| 1788431389 | 22.22° C | 42% | 1022.4 hPa | - | - | - | - |
| 1788430491 | 21.67° C | 44% | 1022.4 hPa | - | - | - | - |
| 1788429591 | 21.67° C | 47% | 1022.4 hPa | - | - | - | - |
| 1788428691 | 21.11° C | 49% | 1022.5 hPa | - | - | - | - |
| 1788427791 | 21.11° C | 49% | 1022.6 hPa | - | - | - | - |
| 1788426890 | 21.11° C | 50% | 1022.6 hPa | - | - | - | - |
| 1788425990 | 20.56° C | 53% | 1022.6 hPa | - | - | - | - |
| 1788424190 | 20.56° C | 52% | 1022.8 hPa | - | - | - | - |
| 1788423290 | 20° C | 54% | 1022.8 hPa | - | - | - | - |
| 1788422390 | 20° C | 57% | 1022.7 hPa | - | - | - | - |
| 1788420590 | 19.44° C | 60% | 1022.4 hPa | - | - | - | - |
| 1788419690 | 19.44° C | 62% | 1022.6 hPa | - | - | - | - |
| 1788418790 | 19.44° C | 66% | 1022.8 hPa | - | - | - | - |
| 1788416989 | 18.89° C | 68% | 1023 hPa | - | - | - | - |
| 1788416089 | 18.89° C | 68% | 1022.8 hPa | - | - | - | - |
| 1788415189 | 18.33° C | 68% | 1022.6 hPa | - | - | - | - |
| 1788413389 | 17.78° C | 66% | 1022.4 hPa | - | - | - | - |
* Rain since midnight (hover to see other rain measurements)
** Current wind speed in m/s (hover to see current wind gust speed)